Regional Weather Roundup
Issued by NWS

Home | Current Version | Previous Version | Graphics & Text | Print | Product List | Glossary On
Versions: 1 2 3 4 5 6 7 8 9 10 11 12 13 14 15 16 17 18 19 20 21 22 23 24 25 26 27 28 29 30 31 32 33 34 35 36 37 38 39 40 41 42 43 44 45 46 47 48 49 50
000
ASUS43 KLOT 020721
RWRIL

ILLINOIS REGIONAL WEATHER ROUNDUP
NATIONAL WEATHER SERVICE CHICAGO/ROMEOVILLE IL
200 AM CDT SUN AUG 02 2015

NOTE: "FAIR" INDICATES FEW OR NO CLOUDS BELOW 12,000 FEET WITH NO
SIGNIFICANT WEATHER AND/OR OBSTRUCTIONS TO VISIBILITY.

* THESE STATIONS ARE NOT UNDER NWS QUALITY CONTROL. THEY ALSO MAY NOT
  REPORT WEATHER SUCH AS PRECIPITATION OR FOG.

ILZ001-002-007-009-015-016-024-020800-
NORTHWEST ILLINOIS

CITY           SKY/WX    TMP DP  RH WIND       PRES   REMARKS
MOLINE         CLEAR     74  70  87 SW8       29.89F
STERLING*      CLEAR     70  64  83 SW3       29.87F
SAVANNA*       CLEAR     71  67  89 S5        29.88F
$$

ILZ003-004-008-010-011-017-018-020800-
NORTH CENTRAL ILLINOIS

CITY           SKY/WX    TMP DP  RH WIND       PRES   REMARKS
ROCKFORD       CLEAR     68  64  87 S3        29.90F
FREEPORT*      CLEAR     69  66  88 SW10      29.90F
ROCHELLE*      CLEAR     67  65  95 SW7       29.91S
DE KALB*       CLEAR     68  64  88 SW6       29.91S
PERU*          CLEAR     72  66  82 SW9       29.92S
$$

ILZ005-006-012>014-019>023-020800-
NORTHEAST ILLINOIS

CITY           SKY/WX    TMP DP  RH WIND       PRES   REMARKS
CHICAGO-OHARE  PTCLDY    73  65  75 W9        29.88F
CHICAGO-MIDWAY CLEAR     76  64  66 SW12      29.88F
AURORA         CLEAR     70  64  81 SW10      29.90F
LANSING*       CLEAR     68  63  84 SW7       29.91S
JOLIET*        CLEAR     73  66  80 SW5       29.91S
WAUKEGAN       CLEAR     72  65  78 SW6       29.86S
DUPAGE AIRPORT CLEAR     71  65  81 SW12      29.90S
KANKAKEE*      CLEAR     67  64  90 CALM      29.93S
WHEELING       CLEAR     75  64  68 W8        29.89S
MORRIS*        CLEAR     69  64  86 W6        29.90F
ROMEOVILLE*    CLEAR     71  63  76 W8        29.90F
NORTHERLY ISL    N/A     77  63  61 W3          N/A
$$

LMZ740>746-020800-
SOUTHERN LAKE MICHIGAN

STATION/POSITION SKY/WX   TEMP    WIND        PRES    VSBY  WAVE
                          AIR SEA DIR/SP/G                  HT/PER
                          (F)     (DEG/KT/KT) (MB)    (MI)  (FT/S)
HARRISON CRIB              77     250/ 19/ 22   N/A
BURNHAM HARBOR             76     250/  6/ 11   N/A
CALUMET HARBOR             75     230/  6/  9   N/A
BURNS HARBOR               75     220/ 10/ 13 1012.9
MICHIGAN CITY              72     180/ 11/ 13   N/A
MICHIGAN CITY 6N           75 74  230/ 12/ 14   N/A           2/ 3
ST. JOSEPH                 74 73  250/ 12/ 14   N/A           3/ 4
$$

ILZ025>027-034>036-040-047-049-050-058-095>099-020800-
WEST-CENTRAL ILLINOIS

CITY           SKY/WX    TMP DP  RH WIND       PRES   REMARKS
QUINCY         PTCLDY    69  65  86 S6        29.94F
GALESBURG*     CLEAR     69  67  96 S6        29.93S
MACOMB*        CLEAR     70  69  96 SW5       29.95F
JACKSONVILLE*  CLEAR     71  67  87 S3        29.95F
PITTSFIELD*    CLEAR     70  68  93 CALM      29.96F
$$

ILZ028>032-037-038-041>044-048-051>054-059>061-020800-
CENTRAL ILLINOIS

CITY           SKY/WX    TMP DP  RH WIND       PRES   REMARKS
PONTIAC        CLEAR     69  67  91 SW6       29.94S
BLOOMINGTON    CLEAR     71  65  81 SW9       29.96F
DECATUR        CLEAR     69  61  75 SW6       29.97S
PEORIA         CLEAR     72  67  84 SW8       29.93F
LACON*         CLEAR     70  66  89 CALM      29.92S
LINCOLN*       CLEAR     70  64  82 S3        29.95S
SPRINGFIELD    CLEAR     72  64  76 S8        29.96F
TAYLORVILLE    CLEAR     66  61  82 S6        29.97S
$$

ILZ033-039-045-046-055>057-062-063-020800-
EAST-CENTRAL ILLINOIS

CITY           SKY/WX    TMP DP  RH WIND       PRES   REMARKS
CHAMPAIGN      CLEAR     65  61  87 SW6       29.97S
DANVILLE*      PTCLDY    62  61  98 CALM      29.94S
RANTOUL*       CLEAR     68  64  85 SW6       29.96S
MATTOON        PTCLDY    70  60  70 S6        29.97S
PARIS*         MOCLDY    63  61  93 SW5       29.99R
$$

ILZ079-100>102-020800-
SOUTHWEST ILLINOIS

CITY           SKY/WX    TMP DP  RH WIND       PRES   REMARKS
ALTON          CLEAR     70  67  90 S3        29.98S
BELLEVILLE     MOCLDY    73  72  94 S2        29.96F
CAHOKIA*       CLEAR     74  68  81 CALM      29.97F
SPARTA*        PTCLDY    73  68  83 S3        29.99F
$$

ILZ064>066-069>071-074>076-080>082-084>086-088>090-092>094-020800-
SOUTH-CENTRAL ILLINOIS

CITY           SKY/WX    TMP DP  RH WIND       PRES   REMARKS
CARBONDALE     PTCLDY    70  68  93 CALM      29.98F
CAIRO*         PTCLDY    72  70  95 CALM      29.98F
EFFINGHAM*     PTCLDY    69  59  71 CALM      30.00S
MARION         PTCLDY    72  66  83 CALM      29.99F
MT. VERNON     PTCLDY    66  61  82 CALM      29.99F
CENTRALIA*     PTCLDY    69  62  78 CALM      29.99S
SALEM*         PTCLDY    67  64  90 CALM      29.99S
METROPOLIS*    MOCLDY    70  70 100 CALM      29.99S
$$

ILZ067-068-072-073-078-083-087-091-020800-
SOUTHEAST ILLINOIS

CITY           SKY/WX    TMP DP  RH WIND       PRES   REMARKS
LAWRENCEVILLE  PTCLDY    65  63  93 CALM      29.99S
FLORA*         PTCLDY    65  62  91 CALM      29.99S
FAIRFIELD*     PTCLDY    67  65  93 CALM      29.97F
HARRISBURG*    PTCLDY    65  65 100 CALM      30.00S
ROBINSON*      MOCLDY    64  63  94 CALM      29.99S
CARMI*         PTCLDY    65  62  87 CALM      29.98F
$$

ABBREVIATIONS USED IN REMARKS
   TC - TEMPERATURE IN CELSIUS
  WCI - WIND CHILL INDEX
   HX - HEAT INDEX
  VSB - VISIBILITY
$$




USA.gov is the U.S. government's official web portal to all federal, state and local government web resources and services.